Home > Weather > Ely > Past weeks

Flag for United Kingdom Past Weather in Ely, England, United Kingdom — Yesterday and Last 2 Weeks

Now
53 °F

Passing clouds.


Feels Like: 51 °F
Forecast: 52 / 64 °F
Wind: 6 mph from West

Location: Mildenhall Royal Air Force Base

Current Time: Jun 26, 2016 at 5:48:31 AM

Latest Report: Jun 26, 2016 at 4:58 AM


Visibility: N/A

Pressure: 29.99 "Hg

Humidity: 100%

Dew Point: 53 °F

Location of ElyLocation

Past Weather in Ely — Graph

°F

Ely Temperature Yesterday

Maximum temperature yesterday: 67 °F (at 11:58 AM)
Minimum temperature yesterday: 50 °F (at 4:58 AM)
Average temperature yesterday: 58 °F

High & Low Weather Summary for the Past Weeks

 TemperatureHumidityPressure
High73 °F (Jun 23, 3:03 PM)100% (Jun 11, 11:58 PM)30.22 "Hg (Jun 11, 11:58 PM)
Low50 °F (Jun 26, 1:58 AM)54% (Jun 24, 3:58 PM)29.34 "Hg (Jun 14, 4:58 PM)
Average61 °F92%29.82 "Hg
* Reported Jun 11 3:58 AM — Jun 26 3:58 AM, Ely, Weather by CustomWeather, © 2016

Note: Actual official high and low records may vary slightly from our data, if they occured in-between our weather recording intervals... More about our weather records

Advertising

Ely Weather History for the Previous 24 Hours

Scroll right to see more
 ConditionsComfort  
Time TempWeatherWind HumidityBarometerVisibility
3:58 AM
Sun, Jun 26
52 °FMostly cloudy.5 mph100%29.99 "HgN/A
2:58 AM51 °FOvercast.3 mph100%30.00 "HgN/A
1:58 AM50 °FPassing clouds.5 mph100%30.00 "HgN/A
12:58 AM51 °FPassing clouds.5 mph100%30.01 "HgN/A
11:58 PM
Sat, Jun 25
54 °FOvercast.5 mph100%30.01 "HgN/A
10:58 PM53 °FPassing clouds.7 mph100%30.00 "HgN/A
9:58 PM54 °FSunny.5 mph100%30.00 "HgN/A
8:58 PM56 °FPartly sunny.5 mph100%29.99 "HgN/A
7:58 PM57 °FPassing clouds.6 mph98%30.00 "HgN/A
6:58 PM57 °FPartly sunny.9 mph99%29.99 "HgN/A
5:58 PM57 °FScattered clouds.10 mph95%29.99 "HgN/A
4:59 PM61 °FThunderstorms. Cloudy.7 mph88%29.98 "HgN/A
4:58 PM61 °FCloudy.9 mph87%29.99 "HgN/A
3:58 PM63 °FLight rain. Scattered clouds.1 mph77%29.97 "HgN/A
2:58 PM64 °FLight rain. Partly sunny.2 mph56%29.98 "HgN/A
1:58 PM64 °FPartly sunny.7 mph76%29.98 "HgN/A
12:58 PM60 °FLight rain. Scattered clouds.6 mph97%29.99 "HgN/A
12:03 PM66 °FPartly sunny.7 mph64%29.98 "HgN/A
11:58 AM67 °FScattered clouds.5 mph63%29.99 "HgN/A
10:59 AM64 °FPassing clouds.3 mph68%30.00 "HgN/A
9:58 AM62 °FScattered clouds.3 mph75%30.01 "HgN/A
8:58 AM62 °FSunny.3 mph83%30.01 "HgN/A
7:58 AM57 °FSunny.9 mph100%30.01 "HgN/A
6:58 AM54 °FSunny.7 mph100%30.01 "HgN/A
5:58 AM52 °FSunny.5 mph100%30.01 "HgN/A
Weather by CustomWeather, © 2016

See weather overviewHow to use our weather pages